Regional Weather Roundup
Issued by NWS

Home | Current Version | Previous Version | Graphics & Text | Print | Product List | Glossary Off
Versions: 1 2 3 4 5 6 7 8 9 10 11 12 13 14 15 16 17 18 19 20 21 22 23 24 25 26 27 28 29 30 31 32 33 34 35 36 37 38 39 40 41 42 43 44 45 46 47 48 49 50

000
ASUS45 KTFX 231704
RWRMT
MONTANA HOURLY WEATHER ROUNDUP
NATIONAL WEATHER SERVICE GREAT FALLS MT
1104 AM MDT WED APR 23 2014

NOTE: "FAIR" INDICATES FEW OR NO CLOUDS BELOW 12000 FEET WITH NO
SIGNIFICANT WEATHER AND/OR OBSTRUCTIONS TO VISIBILITY.

* THESE STATIONS ARE NOT UNDER NWS QUALITY CONTROL. THEY DO NOT
   REPORT WEATHER SUCH AS PRECIPITATION OR FOG.

MTZ001>007-043-231800-
WEST OF THE DIVIDE
CITY           SKY/WX    TMP DP  RH WIND       PRES   REMARKS
KALISPELL      CLOUDY    45  27  49 SW10      29.74F
MISSOULA       CLOUDY    43  27  53 S10       29.84S
BUTTE          PTSUNNY   36  21  54 SW12      29.82S WCI  28
MULLAN PASS    LGT SNOW  27  25  92 VRB6G17   29.74F VSB 3/4  WCI  20
* ESSEX        N/A       40  21  47 S6G14      N/A   WCI  36
* LINCOLN      N/A       36  23  59 SW8G19     N/A   WCI  30
* LOOKOUT PASS N/A       32  29  89 SE4G10     N/A
* POLSON       N/A       40  26  57 SW3G10     N/A
* RONAN APT    PTCLDY    43  28  56 S8         N/A
* SEELEY LAKE  N/A       38  24  57 W4G11      N/A
* THOMP F APT  PTSUNNY   35  20  54 W7G20      N/A   WCI  29
$$

MTZ008-052>055-231800-
SOUTHWEST MONTANA
CITY           SKY/WX    TMP DP  RH WIND       PRES   REMARKS
BOZEMAN        CLOUDY    41  19  41 W22G30    29.81R
DILLON         PTCLDY    36  19  50 W21       29.85R WCI  25
W YELLOWSTONE  N/A       38  24  57 SW5G11     N/A   WCI  34
* THREE FORKS  SUNNY     43  28  56 W13G26     N/A
* BOULDER HILL N/A       34  14  44 S12G19     N/A   WCI  25
* MONIDA PASS  N/A       27  16  63 NW6        N/A   WCI  20
* RAYNOLDS PAS N/A       30  30 100 N3         N/A
* WHITEHALL    N/A       42  22  45 SW12G21    N/A
* WISE RIVER   N/A       34  20  57 NW17G26    N/A   WCI  23
$$

MTZ009>010-012-014-046-048-049-054-231800-
EAST SLOPES AND CENTRAL MONTANA
CITY           SKY/WX    TMP DP  RH WIND       PRES   REMARKS
CUT BANK       PTCLDY    46  19  34 W35G40    29.58S
GREAT FALLS    PTSUNNY   46  21  37 W32G40    29.65R
HELENA         PTCLDY    43  23  45 W20G30    29.78R
MALMSTROM AFB  PTSUNNY   46  18  33 SW26G37   29.63R
* CONRAD       PTCLDY    46  21  37 SW29G38    N/A
* DEARBORN     N/A       44  20  38 S21G27     N/A
* EAST GLACIER N/A       37  17  44 W22G37     N/A   WCI  26
* MONARCH      N/A       34  15  46 W16G27     N/A   WCI  24
* PENDROY      N/A       43  18  37 W26G40     N/A
* ROGERS PASS  N/A       31  22  69 SE18G33    N/A   WCI  19
* SAINT MARY   N/A       38  18  44 S13G26     N/A   WCI  30
* SWEET GRASS  N/A       46  14  27 SW39G52    N/A
$$

MTZ011-013-016-021-035-040-045-047-050-051-231800-
NORTH CENTRAL MONTANA
CITY           SKY/WX    TMP DP  RH WIND       PRES   REMARKS
HAVRE          PTCLDY    52  25  35 W31G41    29.57F
LEWISTOWN      PTSUNNY   43  23  45 W20G29    29.65R
* CHESTER      N/A       46  20  36 W24G50     N/A
* DENTON       N/A       46  21  37 W34G42     N/A
* GEYSER       N/A       42  19  40 W34G42     N/A
* JUDITH GAP   N/A       42  19  40 W26G35     N/A
* LOMA         N/A       49  21  33 SW22G35    N/A
$$

MTZ017>020-022>027-061-062-231800-
NORTHEAST MONTANA
CITY           SKY/WX    TMP DP  RH WIND       PRES   REMARKS
GLASGOW        CLOUDY    46  37  71 NW22G30   29.51R
GLENDIVE       CLOUDY    48  37  66 NW26G36   29.52R
JORDAN         CLOUDY    50  25  38 W33G46    29.54S
SIDNEY         CLOUDY    50  43  77 W21G30    29.45R
WOLF POINT     CLOUDY    48  39  71 W23G31    29.50R
* BEAVER HILL  N/A       46  41  83 W28G39     N/A
* CIRCLE       N/A       45  40  83 W16G24     N/A
* LINDSAY DVD  N/A       41  38  89 W30G40     N/A
* NAVAJO       N/A       48  41  77 S13        N/A
* SACO         N/A       48  37  66 W22G29     N/A
$$

MTZ028>042-056>058-231800-
SOUTHCENTRAL AND SOUTHEAST MONTANA
CITY           SKY/WX    TMP DP  RH WIND       PRES   REMARKS
BAKER          CLOUDY    48  39  71 NW31G40   29.52R
BILLINGS       CLOUDY    46  25  44 W25G31    29.70R
LIVINGSTON     PTCLDY    43 N/A N/A W35G41    29.75S
MILES CITY     LGT RAIN  48  36  63 NW21G31   29.59R
* LAUREL APT   CLOUDY    45  21  38 W24G33     N/A
* ROUNDUP APT  CLOUDY    45  25  45 W21G30     N/A
* HYSHAM       N/A       38  37  96 W13G23     N/A   WCI  30
* LAME DEER    N/A       33  32  96 SW13G20    N/A   WCI  24
* REED POINT   N/A       45  24  44 W34G42     N/A
* ROSCOE HILL  N/A       45  13  27 W8G18      N/A
$$

REGIONAL REPORTS...DAKOTAS
CITY           SKY/WX    TMP DP  RH WIND       PRES   REMARKS
WILLISTON      CLOUDY    57  37  47 SE18G30   29.44S
DICKINSON      CLOUDY    55  36  49 S20G28    29.44R
CROSBY         CLOUDY    52  39  61 SE32G39   29.48F
TIOGA          PTSUNNY   50  39  66 SE32G39   29.51S
WATFORD CITY   PTSUNNY   55  37  51 SE16G24   29.43S
BISMARCK       PTSUNNY   57  37  47 SE33G41   29.56S
GRAND FORKS    LGT RAIN  45  37  74 SE18      29.88R
FARGO          LGT RAIN  45  39  80 SE21G32   29.86S
BUFFALO SD     CLOUDY    54  43  67 W28       29.47R
RAPID CITY     CLOUDY    63  45  52 N8        29.52R
$$

REGIONAL REPORTS...WYOMING/IDAHO/WASHINGTON
CITY           SKY/WX    TMP DP  RH WIND       PRES   REMARKS
GILLETTE       PTSUNNY   48  37  66 NW28G36   29.63R
SHERIDAN       PTSUNNY   45  36  71 NW30G40   29.69R
CODY           CLOUDY    46  19  34 W12G21    29.69S
YELLOWSTONE LA PTCLDY    28  14  56 W10G24    29.81R WCI  19
SALMON         CLOUDY    43  19  38 S13       29.91S
MULLAN PASS    LGT SNOW  27  25  92 VRB6G17   29.74S VSB 3/4  WCI  20
SAND POINT     N/A       37  37 100 S5        29.84S WCI  33
SPOKANE        PTSUNNY   43  34  71 SW20      29.83R
$$

REGIONAL REPORTS...SASKATCHEWAN
CITY           SKY/WX    TMP DP  RH WIND       PRES   REMARKS
MOOSE JAW      LGT RAIN N/A N/A N/A E21        N/A

$$




USA.gov is the U.S. government's official web portal to all federal, state and local government web resources and services.